This is the latest recevied weather packets stored in our database for station/object WD9U. If no packets are shown the sender has not sent any weather packets the latest 10 day(s).
| Time | Temp. | Humidity | Pressure | Rain* | Wind** | Luminosity | Snow |
|---|---|---|---|---|---|---|---|
| 1777653432 | 6.11° C | 43% | 1020.6 hPa | 0 mm | - | 785 W/m² | - |
| 1777653072 | 6.11° C | 43% | 1126.3 hPa | 0 mm | - | 779 W/m² | - |
| 1777652712 | 5.56° C | 46% | 1020.7 hPa | 0 mm | - | 770 W/m² | - |
| 1777652352 | 5.56° C | 47% | 1020.6 hPa | 0 mm | - | 764 W/m² | - |
| 1777651992 | 5.56° C | 48% | 1020.6 hPa | 0 mm | - | 753 W/m² | - |
| 1777651632 | 6.11° C | 50% | 1020.6 hPa | 0 mm | - | 744 W/m² | - |
| 1777651515 | 6.11° C | 49% | 1020.6 hPa | 0 mm | - | 742 W/m² | - |
| 1777651272 | 6.11° C | 51% | 1020.5 hPa | 0 mm | - | 735 W/m² | - |
| 1777650911 | 5.56° C | 50% | 1020.6 hPa | 0 mm | - | 722 W/m² | - |
| 1777650550 | 5° C | 55% | 1020.6 hPa | 0 mm | - | 714 W/m² | - |
| 1777650312 | 4.44° C | 53% | 1020.6 hPa | 0 mm | - | 706 W/m² | - |
| 1777650190 | 4.44° C | 52% | 1020.6 hPa | 0 mm | - | 704 W/m² | - |
| 1777649830 | 5° C | 50% | 1020.6 hPa | 0 mm | - | 690 W/m² | - |
| 1777649469 | 5° C | 50% | 1020.7 hPa | 0 mm | - | 672 W/m² | - |
| 1777649109 | 4.44° C | 54% | 1020.6 hPa | 0 mm | - | 662 W/m² | - |
| 1777648749 | 4.44° C | 53% | 1020.7 hPa | 0 mm | - | 658 W/m² | - |
| 1777648389 | 4.44° C | 52% | 1020.6 hPa | 0 mm | - | 648 W/m² | - |
| 1777648029 | 5° C | 52% | 1020.7 hPa | 0 mm | - | 636 W/m² | - |
| 1777647912 | 5° C | 53% | 1020.7 hPa | 0 mm | - | 624 W/m² | - |
| 1777647669 | 4.44° C | 52% | 1020.7 hPa | 0 mm | - | 612 W/m² | - |
| 1777647309 | 5° C | 54% | 1020.6 hPa | 0 mm | - | 597 W/m² | - |
| 1777646949 | 5° C | 54% | 1020.6 hPa | 0 mm | - | 598 W/m² | - |
| 1777646711 | 4.44° C | 55% | 1020.7 hPa | 0 mm | - | 568 W/m² | - |
| 1777646589 | 4.44° C | 54% | 1020.5 hPa | 0 mm | - | 572 W/m² | - |
| 1777646229 | 4.44° C | 56% | 1020.6 hPa | 0 mm | - | 564 W/m² | - |
* Rain latest hour (hover to see other rain measurements)
** Current wind speed in m/s (hover to see current wind gust speed)